DO7AX-13 Weather Reports


Display with metric or nautical units.
time (UTC)temp
F
wind
direction
speed
MPH
gust
MPH
rain 1hr
in
rain 24hr
in
rain mn
in
humidity
%
barometer
mb
20260507141802 62 358 5.0 16.0 0.00 0.00 0.00 47 1014.3
20260507141301 62 34 8.0 12.0 0.00 0.00 0.00 45 1014.2
20260507140802 62 73 4.0 12.0 0.00 0.00 0.00 46 1014.2
20260507135808 62 45 4.0 14.0 0.00 0.00 0.00 46 1014.3
20260507135306 62 38 7.0 14.0 0.00 0.00 0.00 46 1014.3
20260507134803 62 18 8.0 14.0 0.00 0.00 0.00 48 1014.3
20260507134304 62 24 5.0 14.0 0.00 0.00 0.00 47 1014.3
20260507133803 62 0 9.0 14.0 0.00 0.00 0.00 48 1014.3
20260507133301 62 338 6.0 12.0 0.00 0.00 0.00 48 1014.2
20260507132803 61 41 7.0 12.0 0.00 0.00 0.00 49 1014.3
20260507132300 61 338 6.0 12.0 0.00 0.00 0.00 48 1014.3
20260507131802 61 55 6.0 12.0 0.00 0.00 0.00 50 1014.3
20260507131300 61 41 5.0 11.0 0.00 0.00 0.00 49 1014.2
20260507130301 60 21 6.0 14.0 0.00 0.00 0.00 48 1014.2
20260507125306 61 37 6.0 13.0 0.00 0.00 0.00 51 1014.1
20260507124808 61 0 6.0 14.0 0.00 0.00 0.00 52 1014.1
20260507124307 60 0 8.0 14.0 0.00 0.00 0.00 52 1014.2
20260507123805 60 354 8.0 14.0 0.00 0.00 0.00 53 1014.1
20260507123303 60 16 7.0 14.0 0.00 0.00 0.00 54 1014.0
20260507122802 60 351 6.0 15.0 0.00 0.00 0.00 56 1014.0
20260507122301 59 0 8.0 15.0 0.00 0.00 0.00 55 1014.0
20260507121301 59 336 8.0 14.0 0.00 0.00 0.00 55 1014.0
20260507120800 59 341 9.0 14.0 0.00 0.00 0.00 56 1014.0
20260507120302 59 37 7.0 13.0 0.00 0.00 0.00 57 1014.0
20260507115802 59 20 6.0 14.0 0.00 0.00 0.00 59 1013.9
20260507115301 59 0 7.0 14.0 0.00 0.00 0.00 60 1013.9
20260507114303 59 3 8.0 16.0 0.00 0.00 0.00 60 1014.0
20260507113301 59 0 9.0 14.0 0.00 0.00 0.00 60 1013.9
20260507112803 59 351 8.0 17.0 0.00 0.00 0.00 58 1013.8
20260507112300 59 0 9.0 17.0 0.00 0.00 0.00 58 1013.8
20260507111801 59 20 7.0 14.0 0.00 0.00 0.00 55 1013.8
20260507111302 59 351 7.0 14.0 0.00 0.00 0.00 56 1013.8
20260507110301 58 10 5.0 16.0 0.00 0.00 0.00 61 1013.7
20260507105802 57 0 8.0 18.0 0.00 0.00 0.00 61 1013.7
20260507104800 58 345 8.0 17.0 0.00 0.00 0.00 61 1013.7
20260507104301 58 345 7.0 14.0 0.00 0.00 0.00 61 1013.8
20260507103802 57 338 6.0 14.0 0.00 0.00 0.00 63 1013.7
20260507102800 58 1 7.0 13.0 0.00 0.00 0.00 63 1013.6
20260507102301 58 354 6.0 13.0 0.00 0.00 0.00 61 1013.5
20260507101801 59 1 7.0 13.0 0.00 0.00 0.00 61 1013.6
20260507101306 59 17 5.0 11.0 0.00 0.00 0.00 64 1013.5
20260507100802 59 42 5.0 11.0 0.00 0.00 0.00 59 1013.5
20260507100300 58 30 5.0 13.0 0.00 0.00 0.00 59 1013.5
20260507095801 58 16 9.0 14.0 0.00 0.00 0.00 60 1013.4
20260507095300 58 13 8.0 14.0 0.00 0.00 0.00 60 1013.4
20260507094801 58 0 7.0 12.0 0.00 0.00 0.00 62 1013.3
20260507093801 58 14 6.0 11.0 0.00 0.00 0.00 60 1013.3
20260507093301 58 51 6.0 11.0 0.00 0.00 0.00 61 1013.3
20260507092800 57 24 6.0 11.0 0.00 0.00 0.00 58 1013.2
20260507092301 58 7 4.0 11.0 0.00 0.00 0.00 60 1013.3
20260507091800 58 27 6.0 11.0 0.00 0.00 0.00 55 1013.2
20260507091301 58 45 6.0 11.0 0.00 0.00 0.00 59 1013.2
20260507090801 58 17 7.0 11.0 0.00 0.00 0.00 58 1013.2
20260507085301 57 343 5.0 9.0 0.00 0.00 0.00 60 1013.1
20260507084300 56 54 2.0 11.0 0.00 0.00 0.00 60 1013.2
20260507083802 56 37 3.0 11.0 0.00 0.00 0.00 66 1013.1
20260507083301 55 4 5.0 12.0 0.00 0.00 0.00 62 1013.1
20260507082801 55 47 5.0 12.0 0.00 0.00 0.00 62 1013.1
20260507081803 55 69 6.0 11.0 0.00 0.00 0.00 65 1013.0
20260507081301 55 20 5.0 10.0 0.00 0.00 0.00 63 1013.0
20260507080800 54 69 5.0 9.0 0.00 0.00 0.00 66 1012.9
20260507080300 54 44 5.0 11.0 0.00 0.00 0.00 68 1012.9
20260507075801 53 76 6.0 12.0 0.00 0.00 0.00 67 1012.9
20260507074802 52 133 6.0 11.0 0.00 0.00 0.00 69 1012.9
20260507074301 52 37 4.0 12.0 0.00 0.00 0.00 69 1012.9
20260507073301 52 97 6.0 11.0 0.00 0.00 0.00 71 1012.7
20260507072801 51 7 4.0 11.0 0.00 0.00 0.00 72 1012.6
20260507072323 51 8 3.0 11.0 0.00 0.00 0.00 70 1012.8
20260507071800 52 51 4.0 11.0 0.00 0.00 0.00 71 1012.7
20260507071302 51 75 5.0 11.0 0.00 0.00 0.00 72 1012.8
20260507070802 51 99 6.0 11.0 0.00 0.00 0.00 73 1012.6
20260507070301 51 100 4.0 10.0 0.00 0.00 0.00 72 1012.7
20260507065801 50 42 4.0 10.0 0.00 0.00 0.00 74 1012.6
20260507064801 50 45 6.0 11.0 0.00 0.00 0.00 74 1012.6
20260507064301 50 61 3.0 10.0 0.00 0.00 0.00 74 1012.5
20260507063800 49 38 5.0 10.0 0.00 0.00 0.00 76 1012.4
20260507063301 49 31 4.0 13.0 0.00 0.00 0.00 76 1012.4
20260507062800 49 28 8.0 13.0 0.00 0.00 0.00 75 1012.3
20260507062316 48 55 5.0 9.0 0.00 0.00 0.00 79 1012.1
20260507061804 47 82 4.0 10.0 0.00 0.00 0.00 79 1012.0
20260507061302 47 66 6.0 10.0 0.00 0.00 0.00 79 1012.1
20260507060802 47 89 4.0 9.0 0.00 0.00 0.00 79 1012.1
20260507060302 47 79 2.0 10.0 0.00 0.00 0.00 79 1012.0
20260507055800 47 35 6.0 10.0 0.00 0.00 0.00 79 1011.9
20260507054801 47 69 4.0 11.0 0.00 0.00 0.00 80 1011.9
20260507054301 46 34 5.0 10.0 0.00 0.00 0.00 80 1011.8
20260507053300 46 10 5.0 13.0 0.00 0.00 0.00 80 1011.7
20260507052801 46 41 6.0 11.0 0.00 0.00 0.00 80 1011.7
20260507052301 46 18 4.0 10.0 0.00 0.00 0.00 81 1011.6
20260507051801 46 71 4.0 10.0 0.00 0.00 0.00 81 1011.5
20260507051301 46 117 3.0 11.0 0.00 0.00 0.00 81 1011.6
20260507050800 46 61 6.0 13.0 0.00 0.00 0.00 81 1011.5
20260507045801 46 79 3.0 12.0 0.00 0.00 0.00 82 1011.5
20260507045301 46 37 4.0 12.0 0.00 0.00 0.00 81 1011.4
20260507044800 46 3 5.0 11.0 0.00 0.00 0.00 82 1011.3
20260507044301 45 51 4.0 9.0 0.00 0.00 0.00 82 1011.2
20260507043801 45 69 4.0 12.0 0.00 0.00 0.00 82 1011.1
20260507042802 45 73 5.0 9.0 0.00 0.00 0.00 83 1011.1
20260507042301 45 89 4.0 10.0 0.00 0.00 0.00 83 1011.0
20260507040302 45 27 2.0 9.0 0.00 0.00 0.00 83 1010.9
20260507035801 45 78 4.0 10.0 0.00 0.00 0.00 83 1010.8
20260507034804 45 63 5.0 9.0 0.00 0.00 0.00 84 1010.8
20260507034303 45 51 4.0 7.0 0.00 0.00 0.00 84 1010.8
20260507033801 45 51 4.0 7.0 0.00 0.00 0.00 83 1010.8
20260507033301 45 59 5.0 9.0 0.00 0.00 0.00 83 1010.8
20260507032800 45 30 4.0 9.0 0.00 0.00 0.00 83 1010.8
20260507031301 45 69 3.0 9.0 0.00 0.00 0.00 84 1010.7
20260507030800 45 85 4.0 12.0 0.00 0.00 0.00 84 1010.6
20260507030301 45 66 5.0 12.0 0.00 0.00 0.00 84 1010.6
20260507024802 45 55 4.0 11.0 0.00 0.00 0.00 84 1010.5
20260507024301 45 10 5.0 10.0 0.00 0.00 0.00 83 1010.5
20260507023800 45 96 4.0 10.0 0.00 0.00 0.00 84 1010.4
20260507023317 45 54 3.0 12.0 0.00 0.00 0.00 83 1010.2
20260507022842 45 116 3.0 12.0 0.00 0.00 0.00 83 1010.1
20260507022710 45 116 3.0 11.0 0.00 0.00 0.00 83 1010.2
20260507022152 45 68 6.0 13.0 0.00 0.00 0.00 83 1010.2
20260507022038 45 65 4.0 13.0 0.00 0.00 0.00 83 1010.1
20260507021921 45 85 5.0 10.0 0.00 0.00 0.00 83 1010.1
20260507021723 45 73 5.0 11.0 0.00 0.00 0.00 83 1010.1
20260507021550 45 0 3.0 12.0 0.00 0.00 0.00 83 1010.1
20260507021410 45 100 6.0 12.0 0.00 0.00 0.00 83 1010.1
20260507021254 46 11 4.0 10.0 0.00 0.00 0.00 83 1010.0
20260507011302 46 61 4.0 13.0 0.00 0.00 0.00 83 1009.9
20260507010800 46 96 5.0 10.0 0.00 0.00 0.00 83 1009.7
20260507010300 46 18 4.0 11.0 0.00 0.00 0.00 83 1009.7
20260507005800 46 41 5.0 11.0 0.00 0.00 0.00 82 1009.8
20260507005305 46 45 4.0 10.0 0.00 0.00 0.00 82 1009.7
20260507004802 46 66 5.0 9.0 0.00 0.00 0.00 82 1009.7
20260507004303 46 41 3.0 9.0 0.00 0.00 0.00 82 1009.7
20260507003803 46 90 4.0 9.0 0.00 0.00 0.00 81 1009.8
20260507002801 47 71 4.0 10.0 0.00 0.00 0.00 81 1009.9
20260507002306 47 82 4.0 10.0 0.00 0.00 0.00 81 1009.7
20260507001802 47 69 6.0 13.0 0.00 0.00 0.00 81 1009.8
20260507001303 47 45 5.0 13.0 0.00 0.00 0.00 81 1009.7
20260507000303 47 52 3.0 10.0 0.00 0.00 0.00 81 1009.8
20260506235802 47 96 5.0 12.0 0.00 0.00 0.00 81 1009.7
20260506235306 47 97 6.0 12.0 0.00 0.00 0.00 81 1009.6
20260506233302 47 109 4.0 7.0 0.00 0.00 0.00 81 1009.7
20260506232804 47 102 2.0 7.0 0.00 0.00 0.00 81 1009.7
20260506232306 47 127 2.0 10.0 0.00 0.00 0.00 81 1009.6
20260506231300 47 89 6.0 11.0 0.00 0.00 0.00 81 1009.5
20260506230801 47 16 5.0 10.0 0.00 0.00 0.00 81 1009.6
20260506230314 47 80 5.0 9.0 0.00 0.00 0.00 81 1009.5
20260506225802 47 69 4.0 12.0 0.00 0.00 0.00 81 1009.4
20260506225301 47 80 4.0 12.0 0.00 0.00 0.00 81 1009.5
20260506224803 47 75 6.0 11.0 0.00 0.00 0.00 81 1009.5
20260506224300 47 116 5.0 10.0 0.00 0.00 0.00 81 1009.4
20260506222759 47 71 2.0 12.0 0.00 0.00 0.00 81 1009.3
20260506222300 47 116 4.0 12.0 0.00 0.00 0.00 81 1009.2
20260506221759 47 110 3.0 10.0 0.00 0.00 0.00 81 1009.2
20260506221300 47 59 5.0 11.0 0.00 0.00 0.00 81 1009.1
20260506220801 47 73 6.0 11.0 0.00 0.00 0.00 81 1009.1
20260506220300 47 159 1.0 7.0 0.00 0.00 0.00 81 1009.0
20260506215759 47 79 4.0 12.0 0.00 0.00 0.00 81 1009.1
20260506215259 47 82 4.0 12.0 0.00 0.00 0.00 81 1009.0
20260506214804 47 14 3.0 10.0 0.00 0.00 0.00 81 1009.1
20260506213801 47 96 3.0 12.0 0.00 0.00 0.00 81 1009.0
20260506213303 47 51 6.0 13.0 0.00 0.00 0.00 81 1008.9
20260506212259 47 47 6.0 15.0 0.00 0.00 0.00 81 1008.9
20260506211758 48 75 7.0 15.0 0.00 0.00 0.00 81 1008.9
20260506210757 48 44 7.0 12.0 0.00 0.00 0.00 81 1008.9
20260506210258 48 75 5.0 13.0 0.00 0.00 0.00 81 1008.9
20260506205819 48 47 6.0 15.0 0.00 0.00 0.00 80 1008.9
20260506205255 48 62 7.0 15.0 0.00 0.00 0.00 80 1008.9
20260506204255 48 82 4.0 11.0 0.00 0.00 0.00 82 1008.7
20260506203754 48 113 5.0 9.0 0.00 0.00 0.00 82 1008.6
20260506202812 48 106 2.0 6.0 0.00 0.00 0.00 81 1008.6
20260506202320 48 100 1.0 6.0 0.00 0.00 0.00 81 1008.6
20260506201257 49 120 2.0 6.0 0.00 0.00 0.00 81 1008.6
20260506200756 49 116 3.0 6.0 0.00 0.00 0.00 81 1008.5
20260506200254 49 120 2.0 9.0 0.00 0.00 0.00 81 1008.5
20260506195753 49 42 2.0 14.0 0.00 0.00 0.00 81 1008.4
20260506195254 49 75 7.0 14.0 0.00 0.00 0.00 80 1008.4
20260506194757 49 75 4.0 18.0 0.00 0.00 0.00 80 1008.3
20260506194255 49 99 6.0 18.0 0.00 0.00 0.00 80 1008.3
20260506193756 49 65 8.0 17.0 0.00 0.00 0.00 80 1008.3
20260506192755 49 51 7.0 15.0 0.00 0.00 0.00 81 1008.1
20260506192255 49 111 8.0 15.0 0.00 0.00 0.00 81 1008.1
20260506191756 49 42 4.0 14.0 0.00 0.00 0.00 81 1008.0
20260506191309 49 32 5.0 13.0 0.00 0.00 0.00 81 1007.9
20260506190806 50 82 5.0 15.0 0.00 0.00 0.00 81 1007.9
20260506190254 50 58 6.0 15.0 0.00 0.00 0.00 80 1007.9
20260506185754 50 158 4.0 12.0 0.00 0.00 0.00 80 1007.9
20260506185255 50 78 4.0 15.0 0.00 0.00 0.00 79 1007.8
20260506184753 51 90 8.0 15.0 0.00 0.00 0.00 79 1007.8
20260506184255 51 79 4.0 13.0 0.00 0.00 0.00 79 1007.8
20260506183753 51 92 6.0 13.0 0.00 0.00 0.00 79 1007.7
20260506183252 51 87 6.0 11.0 0.00 0.00 0.00 79 1007.6
20260506182753 52 85 4.0 13.0 0.00 0.00 0.00 78 1007.6
20260506182253 52 99 6.0 13.0 0.00 0.00 0.00 77 1007.4
20260506181754 52 82 6.0 11.0 0.00 0.00 0.00 77 1007.3
20260506181254 52 44 5.0 11.0 0.00 0.00 0.00 77 1007.2
20260506180253 52 62 4.0 12.0 0.00 0.00 0.00 75 1007.1
20260506175752 52 75 5.0 12.0 0.00 0.00 0.00 75 1007.0
20260506175254 52 71 6.0 12.0 0.00 0.00 0.00 77 1007.0
20260506174752 52 34 5.0 12.0 0.00 0.00 0.00 77 1007.0
20260506174252 52 35 4.0 10.0 0.00 0.00 0.00 77 1007.0
20260506173750 52 0 4.0 9.0 0.00 0.00 0.00 78 1007.0
20260506173252 52 25 4.0 13.0 0.00 0.00 0.00 78 1006.9
20260506172751 52 16 6.0 13.0 0.00 0.00 0.00 78 1006.9
20260506172251 52 20 6.0 13.0 0.00 0.00 0.00 78 1006.9
20260506171251 53 11 6.0 12.0 0.00 0.00 0.00 77 1006.8
20260506170750 53 37 6.0 14.0 0.00 0.00 0.00 78 1006.6
20260506170251 53 0 6.0 14.0 0.00 0.00 0.00 77 1006.6
20260506165751 53 25 7.0 14.0 0.00 0.00 0.00 78 1006.6
20260506165249 53 69 9.0 14.0 0.00 0.00 0.00 78 1006.6
20260506164252 53 44 8.0 15.0 0.00 0.00 0.00 78 1006.5
20260506163250 54 32 7.0 12.0 0.00 0.00 0.00 78 1006.6
20260506162750 54 28 6.0 12.0 0.00 0.00 0.00 77 1006.6
20260506161750 54 18 4.0 13.0 0.00 0.00 0.00 77 1006.6
20260506161246 54 17 6.0 12.0 0.00 0.00 0.00 77 1006.6
20260506160746 54 7 7.0 13.0 0.00 0.00 0.00 76 1006.5
20260506160248 54 8 6.0 15.0 0.00 0.00 0.00 77 1006.6
20260506155248 54 35 8.0 13.0 0.00 0.00 0.00 77 1006.4
20260506154748 54 11 5.0 12.0 0.00 0.00 0.00 77 1006.5
20260506153747 54 45 6.0 12.0 0.00 0.00 0.00 77 1006.4
20260506153248 54 30 3.0 11.0 0.00 0.00 0.00 77 1006.5
20260506152748 54 348 5.0 13.0 0.00 0.00 0.00 77 1006.4
20260506151747 54 18 7.0 12.0 0.00 0.00 0.00 76 1006.6
20260506151247 55 20 8.0 16.0 0.00 0.00 0.00 76 1006.5
20260506150248 55 0 6.0 11.0 0.00 0.00 0.00 76 1006.5
20260506145745 55 42 6.0 11.0 0.00 0.00 0.00 76 1006.6
20260506145245 55 34 5.0 11.0 0.00 0.00 0.00 76 1006.6
20260506144744 55 0 6.0 11.0 0.00 0.00 0.00 76 1006.5
20260506144258 56 14 7.0 11.0 0.00 0.00 0.00 75 1006.6
20260506143246 55 42 4.0 9.0 0.00 0.00 0.00 76 1006.5
20260506142745 55 32 4.0 10.0 0.00 0.00 0.00 74 1006.5